TimePDT,TemperatureF,Dew PointF,Humidity,Sea Level PressureIn,VisibilityMPH,Wind Direction,Wind SpeedMPH,Gust SpeedMPH,PrecipitationIn,Events,Conditions,WindDirDegrees,DateUTC
12:15 AM,55.4,53.6,94,30.18,10.0,SSE,3.5,-,N/A,,Overcast,160,2012-10-27 07:15:00
12:35 AM,55.4,55.4,100,30.18,10.0,Calm,Calm,-,N/A,,Overcast,0,2012-10-27 07:35:00
12:55 AM,55.4,53.6,94,30.18,10.0,South,3.5,-,N/A,,Overcast,180,2012-10-27 07:55:00
1:35 AM,55.4,53.6,94,30.17,10.0,SE,4.6,-,N/A,,Overcast,130,2012-10-27 08:35:00
1:55 AM,55.4,53.6,94,30.17,10.0,SE,5.8,-,N/A,,Overcast,130,2012-10-27 08:55:00
2:15 AM,55.4,53.6,94,30.17,10.0,SE,4.6,-,N/A,,Overcast,140,2012-10-27 09:15:00
2:35 AM,55.4,53.6,94,30.17,10.0,SE,5.8,-,N/A,,Overcast,140,2012-10-27 09:35:00
2:55 AM,55.4,53.6,94,30.16,10.0,SSE,4.6,-,N/A,,Overcast,160,2012-10-27 09:55:00
3:15 AM,55.4,53.6,94,30.17,10.0,SSE,4.6,-,N/A,,Overcast,160,2012-10-27 10:15:00
3:35 AM,55.4,53.6,94,30.17,10.0,Calm,Calm,-,N/A,,Overcast,0,2012-10-27 10:35:00
3:55 AM,55.4,53.6,94,30.17,10.0,SSE,4.6,-,N/A,,Overcast,150,2012-10-27 10:55:00
4:15 AM,55.4,55.4,100,30.16,10.0,South,8.1,-,N/A,,Overcast,170,2012-10-27 11:15:00
4:55 AM,53.6,53.6,100,30.16,4.0,SSE,3.5,-,N/A,,Overcast,160,2012-10-27 11:55:00
5:15 AM,53.6,53.6,100,30.17,6.0,SSW,4.6,-,0.02,,Overcast,200,2012-10-27 12:15:00
5:35 AM,53.6,51.8,94,30.16,4.0,SE,5.8,-,0.03,,Overcast,130,2012-10-27 12:35:00
5:55 AM,53.6,51.8,94,30.15,10.0,SE,9.2,-,0.04,,Overcast,140,2012-10-27 12:55:00
6:15 AM,53.6,53.6,100,30.14,8.0,SSE,5.8,-,N/A,,Overcast,150,2012-10-27 13:15:00
6:35 AM,53.6,53.6,100,30.14,10.0,SSE,5.8,-,N/A,,Overcast,150,2012-10-27 13:35:00
7:15 AM,53.6,53.6,100,30.12,10.0,SE,10.4,-,N/A,,Overcast,140,2012-10-27 14:15:00
7:35 AM,53.6,51.8,94,30.12,10.0,SSE,8.1,-,N/A,,Overcast,150,2012-10-27 14:35:00
8:35 AM,53.6,51.8,94,30.12,10.0,SSE,6.9,-,N/A,,Overcast,150,2012-10-27 15:35:00
8:55 AM,53.6,53.6,100,30.12,10.0,SSE,4.6,-,N/A,,Overcast,150,2012-10-27 15:55:00
9:15 AM,53.6,53.6,100,30.12,3.0,SE,6.9,-,N/A,,Overcast,140,2012-10-27 16:15:00
9:35 AM,53.6,53.6,100,30.13,3.0,SSE,4.6,-,N/A,,Overcast,150,2012-10-27 16:35:00
9:55 AM,53.6,53.6,100,30.13,3.0,SSE,3.5,-,N/A,,Overcast,150,2012-10-27 16:55:00
10:15 AM,55.4,53.6,94,30.12,3.0,SE,4.6,-,N/A,,Overcast,140,2012-10-27 17:15:00
10:35 AM,55.4,53.6,94,30.12,3.0,SSE,5.8,-,N/A,,Overcast,150,2012-10-27 17:35:00
10:55 AM,55.4,55.4,100,30.12,1.5,SSE,3.5,-,0.01,,Overcast,150,2012-10-27 17:55:00
11:15 AM,55.4,55.4,100,30.12,2.5,SE,5.8,-,0.01,,Overcast,130,2012-10-27 18:15:00
11:35 AM,55.4,53.6,94,30.12,2.5,SE,5.8,-,0.01,,Overcast,140,2012-10-27 18:35:00
11:55 AM,55.4,55.4,100,30.12,2.5,SE,6.9,-,0.01,,Overcast,140,2012-10-27 18:55:00
12:15 PM,57.2,57.2,100,30.11,10.0,SSE,3.5,-,N/A,,Overcast,150,2012-10-27 19:15:00
12:35 PM,60.8,59.0,94,30.11,5.0,SSW,10.4,-,N/A,,Overcast,210,2012-10-27 19:35:00
12:55 PM,60.8,59.0,94,30.10,5.0,SSW,9.2,17.3,N/A,,Overcast,200,2012-10-27 19:55:00
1:15 PM,60.8,59.0,94,30.09,10.0,SSW,12.7,19.6,N/A,,Overcast,200,2012-10-27 20:15:00
1:35 PM,60.8,60.8,100,30.09,10.0,SSW,12.7,18.4,N/A,,Overcast,200,2012-10-27 20:35:00
1:55 PM,62.6,60.8,94,30.09,5.0,SSW,10.4,17.3,N/A,,Overcast,200,2012-10-27 20:55:00
2:15 PM,62.6,60.8,94,30.08,5.0,SSW,9.2,19.6,N/A,,Overcast,200,2012-10-27 21:15:00
2:35 PM,62.6,60.8,94,30.08,5.0,South,11.5,17.3,N/A,,Overcast,190,2012-10-27 21:35:00
2:55 PM,62.6,60.8,94,30.07,5.0,South,10.4,17.3,N/A,,Overcast,190,2012-10-27 21:55:00
3:15 PM,62.6,60.8,94,30.07,10.0,SSW,10.4,16.1,N/A,,Overcast,200,2012-10-27 22:15:00
3:35 PM,62.6,60.8,94,30.07,10.0,SSW,9.2,16.1,N/A,,Overcast,210,2012-10-27 22:35:00
3:55 PM,62.6,60.8,94,30.07,10.0,SSW,10.4,16.1,N/A,,Overcast,210,2012-10-27 22:55:00
4:15 PM,62.6,59.0,88,30.08,10.0,SW,15.0,19.6,N/A,,Overcast,220,2012-10-27 23:15:00
4:35 PM,60.8,60.8,100,30.08,6.0,SSW,10.4,21.9,N/A,,Overcast,200,2012-10-27 23:35:00
4:55 PM,60.8,59.0,94,30.07,2.5,SSW,9.2,16.1,N/A,,Overcast,200,2012-10-27 23:55:00
5:15 PM,60.8,59.0,94,30.07,10.0,SSW,10.4,18.4,N/A,,Overcast,210,2012-10-28 00:15:00
5:35 PM,60.8,59.0,94,30.07,5.0,SSW,10.4,16.1,N/A,,Overcast,200,2012-10-28 00:35:00
5:55 PM,60.8,59.0,94,30.07,5.0,SSW,10.4,-,N/A,,Overcast,200,2012-10-28 00:55:00
6:15 PM,60.8,59.0,94,30.07,5.0,South,11.5,17.3,N/A,,Overcast,190,2012-10-28 01:15:00
6:35 PM,60.8,59.0,94,30.06,5.0,South,9.2,17.3,N/A,,Overcast,190,2012-10-28 01:35:00
6:55 PM,60.8,59.0,94,30.06,5.0,South,9.2,-,N/A,,Overcast,180,2012-10-28 01:55:00
7:15 PM,60.8,60.8,100,30.06,10.0,South,9.2,-,N/A,,Overcast,180,2012-10-28 02:15:00
7:35 PM,60.8,60.8,100,30.06,10.0,South,6.9,-,N/A,,Overcast,180,2012-10-28 02:35:00
7:55 PM,60.8,60.8,100,30.07,10.0,SSW,5.8,-,N/A,,Overcast,200,2012-10-28 02:55:00
8:15 PM,60.8,60.8,100,30.06,9.0,SSE,11.5,-,N/A,,Overcast,160,2012-10-28 03:15:00
8:35 PM,60.8,60.8,100,30.06,7.0,South,9.2,-,N/A,,Overcast,180,2012-10-28 03:35:00
8:55 PM,60.8,60.8,100,30.06,10.0,South,9.2,-,N/A,,Overcast,190,2012-10-28 03:55:00
9:15 PM,60.8,60.8,100,30.06,10.0,South,12.7,18.4,N/A,,Overcast,170,2012-10-28 04:15:00
9:35 PM,60.8,60.8,100,30.06,9.0,South,10.4,-,N/A,,Overcast,180,2012-10-28 04:35:00
9:55 PM,60.8,60.8,100,30.06,8.0,South,9.2,-,N/A,,Overcast,180,2012-10-28 04:55:00
10:15 PM,60.8,60.8,100,30.06,10.0,South,8.1,-,N/A,,Overcast,170,2012-10-28 05:15:00
10:35 PM,60.8,60.8,100,30.06,9.0,South,9.2,-,N/A,,Overcast,180,2012-10-28 05:35:00
10:55 PM,60.8,60.8,100,30.06,7.0,South,11.5,16.1,N/A,,Overcast,190,2012-10-28 05:55:00
11:15 PM,60.8,60.8,100,30.06,8.0,South,9.2,-,N/A,,Overcast,180,2012-10-28 06:15:00
11:35 PM,60.8,60.8,100,30.06,5.0,South,9.2,18.4,0.01,,Overcast,170,2012-10-28 06:35:00
11:55 PM,60.8,60.8,100,30.06,8.0,South,9.2,-,0.02,,Overcast,180,2012-10-28 06:55:00